Weather History for LEGE - July, 2013

Change the Weather History Date:

Friday, July 12, 2013

  Actual Average Record
Temperature  
Mean Temperature 74 °F -  
Max Temperature 89 °F 85 °F 100 °F (2006)
Min Temperature 60 °F 62 °F 55 °F (1996)
Cooling Degree Days 10    
Growing Degree Days 24 (Base 50)    
Moisture  
Dew Point 62 °F    
Average Humidity 66    
Maximum Humidity 100    
Minimum Humidity 26    
Precipitation  
Precipitation 0.00 in 0.06 in - ()
Sea Level Pressure  
Sea Level Pressure 29.98 in    
Wind  
Wind Speed 3 mph ()    
Max Wind Speed 29 mph    
Max Gust Speed -    
Visibility 7.3 miles    
Events Fog    
Averages and records for this station are not official NWS values.
T = Trace of Precipitation, MM = Missing Value Source: Averaged Metar Reports

Daily Weather History Graph

Daily Weather History Graph

Search for Another Location

Airport or City:

Trip Planner

Search our weather history database for the weather conditions in past years. The results will help you decide how hot, cold, wet, or windy it might be!

Date:

Astronomy

Jul. 12, 2013 Rise Set
Actual Time 6:24 AM CEST 9:24 PM CEST
Civil Twilight 5:51 AM CEST 9:57 PM CEST
Nautical Twilight 5:08 AM CEST 10:40 PM CEST
Astronomical Twilight 4:18 AM CEST 11:29 PM CEST
Moon 10:30 AM CEST (7/12) 11:21 PM CEST (7/12)
Length of Visible Light 16h 06m
Length of Day
14h 59m
Waxing Crescent, 15% of the Moon is Illuminated
Jul 12
Waxing Crescent
Jul 16
First Quarter
Jul 22
Full
Jul 29
Last Quarter
Aug 6
New

Hourly Weather History & Observations

Time (CEST) Temp. Heat Index Dew Point Humidity Pressure Visibility Wind Dir Wind Speed Gust Speed Precip Events Conditions
12:00 AM 67 °F - 66 °F 96% 29.94 in - SSW 1.2 mph - -  
12:00 AM 66.2 °F - 66.2 °F 100% 29.95 in 3.7 mi SSW 1.2 mph - N/A Fog Patches of Fog
12:30 AM 66.2 °F - 64.4 °F 94% 29.95 in 2.5 mi SW 1.2 mph - N/A Fog Patches of Fog
1:00 AM 66 °F - 65 °F 97% 29.94 in - Calm Calm - -  
1:00 AM 66.2 °F - 64.4 °F 94% 29.95 in 2.5 mi Calm Calm - N/A Fog Patches of Fog
1:30 AM 64.4 °F - 64.4 °F 100% 29.95 in 1.9 mi Calm Calm - N/A Fog Patches of Fog
2:00 AM 65 °F - 63 °F 90% 29.95 in - Calm Calm - -  
2:00 AM 64.4 °F - 62.6 °F 94% 29.95 in 3.1 mi Calm Calm - N/A Fog Patches of Fog
2:30 AM 62.6 °F - 62.6 °F 100% 29.95 in 3.7 mi Calm Calm - N/A Fog Patches of Fog
3:00 AM 64 °F - 62 °F 90% 29.94 in - Calm Calm - -  
3:00 AM 62.6 °F - 62.6 °F 100% 29.95 in 3.7 mi Calm Calm - N/A   Partly Cloudy
3:30 AM 62.6 °F - 62.6 °F 100% 29.95 in 6.2 mi Calm Calm - N/A   Partly Cloudy
4:00 AM 60.8 °F - 60.8 °F 100% 29.95 in 6.2 mi Calm Calm - N/A   Partly Cloudy
4:30 AM 62.6 °F - 60.8 °F 94% 29.95 in 4.3 mi Calm Calm - N/A Fog Fog
5:00 AM 63 °F - 62 °F 94% 29.94 in - Calm Calm - -  
5:00 AM 62.6 °F - 60.8 °F 94% 29.95 in 5.6 mi Calm Calm - N/A Fog Fog
5:30 AM 60.8 °F - 60.8 °F 100% 29.95 in 5.6 mi Calm Calm - N/A Fog Fog
6:00 AM 62 °F - 60 °F 93% 29.95 in - Calm Calm - -  
6:00 AM 60.8 °F - 60.8 °F 100% 29.95 in 6.2 mi Calm Calm - N/A Fog Partly Cloudy
6:30 AM 60.8 °F - 60.8 °F 100% 29.95 in 6.2 mi Calm Calm - N/A Fog Unknown
7:00 AM 63 °F - 62 °F 96% 29.95 in - Calm Calm - -  
7:00 AM 62.6 °F - 60.8 °F 94% 29.95 in 6.2 mi Calm Calm - N/A Fog Unknown
7:30 AM 64.4 °F - 62.6 °F 94% 29.98 in 6.2 mi Calm Calm - N/A Fog Unknown
8:00 AM 67 °F - 63 °F 82% 29.96 in 19 mi NE 2.3 mph - -   Clear
8:00 AM 66.2 °F - 62.6 °F 88% 29.98 in - Variable 1.2 mph - N/A   Clear
8:30 AM 69.8 °F - 64.4 °F 83% 29.98 in - Calm Calm - N/A   Clear
9:00 AM 74 °F - 65 °F 68% 29.96 in - Calm Calm - -  
9:00 AM 73.4 °F - 64.4 °F 73% 29.98 in - Calm Calm - N/A   Clear
9:30 AM 75.2 °F - 66.2 °F 73% 29.98 in - Calm Calm - N/A   Clear
10:00 AM 79 °F - 64 °F 50% 29.98 in - NE 2.3 mph - -  
10:00 AM 77.0 °F - 64.4 °F 65% 30.01 in - Variable 1.2 mph - N/A   Clear
10:30 AM 78.8 °F - 66.2 °F 65% 30.01 in - South 1.2 mph - N/A   Clear
11:00 AM 82 °F - 63 °F 43% 29.98 in 19 mi South 3.5 mph - -   Scattered Clouds
11:00 AM 78.8 °F - 62.6 °F 57% 30.01 in 6.2 mi South 3.5 mph - N/A   Partly Cloudy
11:30 AM 80.6 °F 81.8 °F 62.6 °F 54% 30.01 in 6.2 mi SSW 5.8 mph - N/A   Partly Cloudy
12:00 PM 84 °F - 65 °F 43% 29.99 in - South 6.9 mph - -  
12:00 PM 82.4 °F 83.4 °F 62.6 °F 51% 30.01 in 6.2 mi South 5.8 mph - N/A   Partly Cloudy
12:30 PM 82.4 °F 83.9 °F 64.4 °F 54% 30.01 in 6.2 mi SSW 5.8 mph - N/A   Partly Cloudy
1:00 PM 87 °F - 61 °F 32% 29.98 in - South 6.9 mph - -  
1:00 PM 84.2 °F 85.0 °F 62.6 °F 48% 30.01 in 6.2 mi South 5.8 mph - N/A   Partly Cloudy
1:30 PM 86.0 °F 86.6 °F 62.6 °F 45% 30.01 in 6.2 mi SSW 8.1 mph - N/A   Partly Cloudy
2:00 PM 89 °F - 61 °F 29% 29.96 in 19 mi South 9.2 mph - -   Scattered Clouds
2:00 PM 87.8 °F 87.6 °F 60.8 °F 40% 30.01 in 6.2 mi SSE 8.1 mph - N/A   Partly Cloudy
2:30 PM 86.0 °F 85.4 °F 59.0 °F 40% 30.01 in 6.2 mi SSW 10.4 mph - N/A   Partly Cloudy
3:00 PM 89 °F - 60 °F 28% 29.97 in - SSW 15.0 mph - -  
3:00 PM 86.0 °F 85.4 °F 59.0 °F 40% 30.01 in 6.2 mi SSW 13.8 mph - N/A   Partly Cloudy
3:30 PM 84.2 °F 85.0 °F 62.6 °F 48% 30.01 in 6.2 mi South 12.7 mph - N/A   Partly Cloudy
4:00 PM 88 °F - 59 °F 27% 29.96 in - South 13.8 mph - -  
4:00 PM 86.0 °F 84.9 °F 57.2 °F 37% 29.98 in 6.2 mi South 13.8 mph - N/A   Partly Cloudy
4:30 PM 86.0 °F 84.9 °F 57.2 °F 37% 29.98 in - South 13.8 mph - N/A   Clear
5:00 PM 87 °F - 58 °F 27% 29.95 in 16 mi South 29.1 mph - -   Scattered Clouds
5:00 PM 86.0 °F 85.4 °F 59.0 °F 40% 29.98 in - South 15.0 mph - N/A   Clear
5:30 PM 86.0 °F 85.4 °F 59.0 °F 40% 29.98 in - South 12.7 mph - N/A   Clear
6:00 PM 87 °F - 57 °F 26% 29.94 in - South 13.8 mph - -  
6:00 PM 86.0 °F 84.9 °F 57.2 °F 37% 29.98 in - South 12.7 mph - N/A   Clear
6:30 PM 84.2 °F 83.0 °F 55.4 °F 37% 29.98 in - South 13.8 mph - N/A   Clear
7:00 PM 85 °F - 62 °F 36% 29.93 in - South 29.1 mph - -  
7:00 PM 82.4 °F 82.9 °F 60.8 °F 48% 29.98 in - South 13.8 mph - N/A   Clear
7:30 PM 82.4 °F 82.9 °F 60.8 °F 48% 29.98 in - South 11.5 mph - N/A   Clear
8:00 PM 82 °F - 62 °F 41% 29.95 in 19 mi SSE 6.9 mph - -   Scattered Clouds
8:00 PM 80.6 °F 81.8 °F 62.6 °F 54% 29.98 in 6.2 mi SSE 6.9 mph - N/A   Partly Cloudy
8:30 PM 78.8 °F - 60.8 °F 54% 29.98 in 6.2 mi South 6.9 mph - N/A   Partly Cloudy
9:00 PM 78 °F - 62 °F 49% 29.98 in - South 9.2 mph - -  
9:00 PM 77.0 °F - 62.6 °F 61% 30.01 in 6.2 mi South 9.2 mph - N/A   Partly Cloudy
9:30 PM 75.2 °F - 64.4 °F 69% 30.01 in 6.2 mi SSW 5.8 mph - N/A   Partly Cloudy
10:00 PM 75 °F - 64 °F 61% 29.99 in - SSW 2.3 mph - -  
10:00 PM 73.4 °F - 64.4 °F 73% 30.01 in 6.2 mi Variable 1.2 mph - N/A   Partly Cloudy
10:30 PM 73.4 °F - 64.4 °F 73% 30.01 in 6.2 mi SW 2.3 mph - N/A   Partly Cloudy
11:00 PM 73 °F - 64 °F 67% 30.01 in 16 mi Calm Calm - -   Scattered Clouds
11:00 PM 71.6 °F - 64.4 °F 78% 30.04 in 6.2 mi Calm Calm - N/A   Partly Cloudy
11:30 PM 71.6 °F - 64.4 °F 78% 30.04 in 6.2 mi SSW 2.3 mph - N/A   Partly Cloudy